Location: Newark
(43.4306°N, 0.3089°E)
Time: 00:27:16
(UTC+00:00)

Courier 1B Rocket - All Passes

Search period start: 22 August 2019 00:00
Search period end: 01 September 2019 00:00
Orbit: 920 x 1202 km, 28.3° (Epoch: 20 August)

Date Brightness Start Highest point End Pass type
(mag) Time Alt. Az. Time Alt. Az. Time Alt. Az.
22 Aug - 02:29:36 10° S 02:33:22 15° SSE 02:37:12 10° SE visible
22 Aug - 04:20:03 10° SW 04:25:52 24° S 04:31:49 10° ESE visible
22 Aug - 06:12:40 10° WSW 06:18:36 24° S 06:24:33 10° SE daylight
22 Aug - 08:07:13 10° SW 08:11:09 15° SSW 08:15:06 10° S daylight
23 Aug - 01:31:35 10° SSE 01:32:37 10° SSE 01:33:40 10° SE visible
23 Aug - 03:19:37 10° SSW 03:24:58 21° SSE 03:30:30 10° ESE visible
23 Aug - 05:11:39 10° SW 05:17:39 25° S 05:23:45 10° SE daylight
23 Aug - 07:05:19 10° WSW 07:10:18 18° SSW 07:15:17 10° SSE daylight
24 Aug - 02:19:30 10° SSW 02:24:08 18° SSE 02:28:54 10° ESE visible
24 Aug - 04:10:50 10° SW 04:16:42 25° S 04:22:45 10° SE visible
24 Aug - 06:03:53 10° WSW 06:09:24 21° SSW 06:14:59 10° SSE daylight
24 Aug - 08:00:17 10° SW 08:01:52 11° SSW 08:03:28 10° SSW daylight
25 Aug - 01:19:58 10° S 01:23:21 14° SSE 01:26:51 10° SE visible
25 Aug - 03:10:14 10° SW 03:15:48 23° S 03:21:34 10° ESE visible
25 Aug - 05:02:44 10° WSW 05:08:29 24° S 05:14:21 10° SE daylight
25 Aug - 06:57:10 10° SW 07:01:03 15° SSW 07:04:57 10° S daylight
26 Aug - 02:09:53 10° SSW 02:14:57 21° SSE 02:20:12 10° ESE visible
26 Aug - 04:01:49 10° SW 04:07:33 25° S 04:13:30 10° SE visible
26 Aug - 05:55:23 10° WSW 06:00:12 18° SSW 06:05:06 10° SSE daylight
27 Aug - 01:09:54 10° SSW 01:14:09 17° SSE 01:18:35 10° SE visible
27 Aug - 03:01:05 10° SW 03:06:39 24° S 03:12:28 10° SE visible
27 Aug - 04:54:02 10° WSW 04:59:18 21° SSW 05:04:44 10° SSE daylight
27 Aug - 06:50:39 10° SW 06:51:47 10° SSW 06:52:55 10° SSW daylight
28 Aug - 00:10:30 10° S 00:13:26 13° SSE 00:16:27 10° SE night (unlit)
28 Aug - 02:00:35 10° SW 02:05:48 22° S 02:11:16 10° SE visible
28 Aug - 03:52:58 10° SW 03:58:25 23° S 04:04:04 10° SE visible
28 Aug - 05:47:23 10° SW 05:50:58 14° SSW 05:54:37 10° S daylight
29 Aug - 01:00:19 10° SSW 01:05:00 20° SSE 01:09:54 10° SE visible
29 Aug - 02:52:08 10° SW 02:57:32 23° S 03:03:11 10° SE visible
29 Aug - 04:45:39 10° SW 04:50:08 17° SSW 04:54:44 10° SSE visible
30 Aug - 00:00:24 10° SSW 00:04:16 16° SSE 00:08:17 10° SE night (unlit)
30 Aug - 01:51:29 10° SW 01:56:42 23° S 02:02:09 10° SE visible
30 Aug - 03:44:22 10° SW 03:49:16 20° SSW 03:54:22 10° SSE visible
30 Aug - 23:01:09 10° S 23:03:36 12° SSE 23:06:07 10° SE night (unlit)
31 Aug - 00:51:03 10° SW 00:55:54 21° S 01:00:59 10° SE visible
31 Aug - 02:43:23 10° SW 02:48:26 21° S 02:53:44 10° SE visible
31 Aug - 04:37:52 10° SW 04:40:56 13° SSW 04:44:05 10° S visible
31 Aug - 23:50:50 10° SSW 23:55:09 19° SSE 23:59:39 10° SE night (unlit)
